sat.trackr.live / text

‹ back to catalog

ONEWEB-0083

NORAD 45435 · 2020-020M

PAYLOAD ACTIVE UNKNOWN

§ Identity

Operator
Country
UK
Launch date
2020-03-21
Launch site
TYMSC
Launch vehicle
Mass (kg)
RCS (m²)

Purposes: comms

External: N2YO · Heavens-Above · Gunter

§ Orbital elements

Epoch: 2026-05-25T02:09:31.033728Z

Period
109.80 min
Inclination
87.8919°
Eccentricity
0.0001731
Mean motion
13.11417448 rev/d
Perigee alt
1,216.4 km
Apogee alt
1,219.0 km
Semi-major
7,595.8 km
B*
-9.7166e-4
RAAN
25.6538°
Arg perigee
79.9393°
Mean anomaly
280.1930°
Rev number
29,964

§ Raw data

ONEWEB-00831 45435U 20020M   26145.08994252 -.00000332  00000+0 -97166-3 0  99932 45435  87.8919  25.6538 0001731  79.9393 280.1930 13.11417448299643

JSON: /api/v1/satellites/45435 · /tle

For live sub-satellite position, see the globe view (requires WebGL).

§ Visibility from observer

Set your observer location to see the next 7 days of passes ≥ 10°. The values pass through the URL so the page stays shareable.

No JS? Fill the form by hand. The geolocation button needs JavaScript.